Tracking 22130 objects as of 21-Jan-2021
HD Live streaming from Space Station
objects crossing your sky now

STARLINK 1032

Track STARLINK 1032 now!
10-day predictions
STARLINK 1032 is classified as:


NORAD ID: 44737
Int'l Code: 2019-074AA
Perigee: 553.0 km
Apogee: 555.6 km
Inclination: 53.1 °
Period: 95.6 minutes
Semi major axis: 6925 km
RCS: Unknown
Launch date: November 11, 2019
Source: United States (US)
Launch site: AIR FORCE EASTERN TEST RANGE (AFETR)
aabbcc
Your satellite tracking list
Your tracking list is empty




NASA's NSSDC Master Catalog

Two Line Element Set (TLE):
1 44737U 19074AA  21021.26916673  .00000393  00000-0  45310-4 0  9994
2 44737  53.0574 336.7088 0001905  63.2403 296.8781 15.06406679 66107
Source of the keplerian elements: AFSPC